Starlink 31961

operational
NORAD ID: 59894 Int'l Des: 2024-100 Owner: SPXS Country: US Constellation: starlink
LEOCIRCULAR

About Starlink 31961

Description loading...

Live Position

Loading 3D Globe...

Upcoming Passes

Altitude History

Altitude vs Time

uPlot chart will show altitude changes over time

Two-Line Element Set

1 59894U 24100K 25260.06190247 -.00000359 00000-0 -34991-5 0 9996
2 59894 43.0057 18.9571 0001709 281.1457 78.9203 15.27568931 74683
Epoch: Sep 17, 2025 • Age: 23 hours

Current Status

Altitude 484.1 km
Velocity 7.62 km/s
Sub-Earth Point -10.24°S, 9.28°W
Launch Date May 28, 2024
Age 1.3 years
Type internet

Technical Details

Classification Payload
Mass 730.00 kg
Dry Mass 700.00 kg
Total Mass 730.00 kg
Length 0.30 m
Diameter 4.10 m
Span 29.00 m
Shape Box + pan
Manufacturer SPXS
Bus Type Starlink V2M
Phase Status In Orbit
Owner/State SPXS/US

Large Constellations

Loading constellations...